Simultaneous Nadir Overpasses (SNOs) Predictions

Prediction of SNOs between GOES-14 and NOAA-20 Satellite Orbit:

Table of predicted SNOs for the next 14.0 days since TLE Epoch: 2/6/2021
Index Date Time (GOES-14) GOES-14 Lat,Lon NOAA-20 Lat,Lon Distance(km) Time Diff (sec)
1 02/06/2021 20:35:57 0.03,-104.14 -0.69,-107.33 363.80 80
2 02/07/2021 20:14:33 0.03,-104.13 0.34,-102.80 152.47 80
3 02/09/2021 08:36:21 -0.02,-104.37 0.80,-108.07 421.66 80
4 02/10/2021 08:20:17 -0.02,-104.38 -0.23,-103.54 95.48 80
5 02/12/2021 20:23:27 0.02,-104.16 0.01,-104.30 16.41 80
6 02/15/2021 08:23:51 -0.02,-104.40 0.10,-105.05 73.56 80
7 02/16/2021 08:07:46 -0.03,-104.41 -0.87,-100.51 444.12 80
8 02/17/2021 20:29:41 0.02,-104.20 -0.36,-105.80 182.83 80
9 02/18/2021 20:08:17 0.03,-104.20 0.67,-101.27 333.85 80
